, LA

(GMT )
Venice

Weather History for K1B7 - August, 2014

Change the Weather History Date:

Sunday, August 31, 2014

  Actual Average Record
Temperature  
Mean Temperature 84 °F -  
Max Temperature 89 °F - - ()
Min Temperature 80 °F - - ()
Cooling Degree Days 20    
Growing Degree Days 34 (Base 50)    
Moisture  
Dew Point 78 °F    
Average Humidity 76    
Maximum Humidity 94    
Minimum Humidity 59    
Precipitation  
Precipitation 0.00 in - - ()
Sea Level Pressure  
Sea Level Pressure 30.07 in    
Wind  
Wind Speed 8 mph (SE)    
Max Wind Speed 16 mph    
Max Gust Speed -    
Visibility 10 miles    
Events      
Averages and records for this station are not official NWS values.
T = Trace of Precipitation, MM = Missing Value Source: NWS Daily Summary

Daily Weather History Graph

Daily Weather History Graph

Search for Another Location

Airport or City:

Astronomy

Aug. 31, 2014 Rise Set
Actual Time 6:34 AM CDT 7:20 PM CDT
Civil Twilight 6:10 AM CDT 7:44 PM CDT
Nautical Twilight 5:41 AM CDT 8:13 PM CDT
Astronomical Twilight 5:12 AM CDT 8:42 PM CDT
Moon 11:53 AM CDT (8/31) 11:04 PM CDT (8/31)
Length of Visible Light 13h 34m
Length of Day
12h 46m
Waxing Crescent, 32% of the Moon is Illuminated
Aug 31
Waxing Crescent
Sep 2
First Quarter
Sep 8
Full
Sep 15
Last Quarter
Sep 24
New

Hourly Weather History & Observations

Time (CDT) Temp. Heat Index Dew Point Humidity Pressure Visibility Wind Dir Wind Speed Gust Speed Precip Events Conditions
5:00 AM 80.6 °F 88.1 °F 78.8 °F 94% 30.04 in 10.0 mi SSE 8.1 mph - N/A   Clear
5:39 AM 80.6 °F 88.1 °F 78.8 °F 94% 30.05 in 10.0 mi NE 5.8 mph - N/A   Clear
5:59 AM 80.6 °F 87.1 °F 77.0 °F 89% 30.06 in 10.0 mi SSE 6.9 mph - N/A   Partly Cloudy
6:24 AM 80.6 °F 88.1 °F 78.8 °F 94% 30.06 in 10.0 mi SSE 6.9 mph - N/A   Partly Cloudy
6:45 AM 80.6 °F 87.1 °F 77.0 °F 89% 30.06 in 10.0 mi Variable 2.3 mph - N/A   Partly Cloudy
7:31 AM 82.4 °F 92.4 °F 78.8 °F 89% 30.07 in 10.0 mi ESE 5.8 mph - N/A   Clear
7:48 AM 84.2 °F 96.1 °F 78.8 °F 84% 30.08 in 10.0 mi Variable 2.3 mph - N/A   Partly Cloudy
8:21 AM 84.2 °F 96.1 °F 78.8 °F 84% 30.08 in 10.0 mi SE 8.1 mph - N/A   Clear
9:09 AM 86.0 °F 99.3 °F 78.8 °F 79% 30.08 in 10.0 mi East 6.9 mph - N/A   Clear
9:30 AM 87.8 °F 104.9 °F 80.6 °F 79% 30.08 in 10.0 mi SE 6.9 mph - N/A   Scattered Clouds
9:50 AM 87.8 °F 104.9 °F 80.6 °F 79% 30.10 in 10.0 mi East 6.9 mph - N/A   Scattered Clouds
10:39 AM 87.8 °F 99.7 °F 77.0 °F 70% 30.09 in 10.0 mi ESE 10.4 mph - N/A   Scattered Clouds
10:59 AM 89.6 °F 102.2 °F 77.0 °F 66% 30.09 in 10.0 mi ESE 10.4 mph - N/A   Mostly Cloudy
11:37 AM 89.6 °F 104.7 °F 78.8 °F 70% 30.09 in 10.0 mi SE 10.4 mph - N/A   Scattered Clouds
12:44 PM 89.6 °F 99.8 °F 75.2 °F 62% 30.08 in 10.0 mi SE 10.4 mph - N/A   Scattered Clouds
1:29 PM 89.6 °F 99.8 °F 75.2 °F 62% 30.07 in 10.0 mi SE 15.0 mph - N/A   Partly Cloudy
1:47 PM 89.6 °F 102.2 °F 77.0 °F 66% 30.07 in 10.0 mi SE 11.5 mph - N/A   Partly Cloudy
2:20 PM 89.6 °F 102.2 °F 77.0 °F 66% 30.06 in 10.0 mi SE 13.8 mph - N/A   Partly Cloudy
2:47 PM 89.6 °F 102.2 °F 77.0 °F 66% 30.05 in 10.0 mi SSE 16.1 mph - N/A   Mostly Cloudy
3:26 PM 89.6 °F 98.2 °F 73.4 °F 59% 30.04 in 10.0 mi SE 13.8 mph - N/A   Partly Cloudy
3:54 PM 89.6 °F 102.2 °F 77.0 °F 66% 30.04 in 10.0 mi SE 12.7 mph - N/A   Scattered Clouds
4:32 PM 89.6 °F 99.8 °F 75.2 °F 62% 3.00 in 10.0 mi SSE 15.0 mph - N/A   Mostly Cloudy